Al Hoceima, Morocco

12:09 PM WET on February 23, 2017 (GMT +0000)
Cherif Al Idrissi

Weather History for GMTA - April, 2014

Change the Weather History Date:

Thursday, April 3, 2014

  Actual Average Record
Temperature  
Mean Temperature 60 °F -  
Max Temperature 68 °F 65 °F 70 °F (2013)
Min Temperature 52 °F 52 °F 46 °F (2007)
Degree Days  
Heating Degree Days 5    
Growing Degree Days 10 (Base 50)    
Moisture  
Dew Point 46 °F    
Average Humidity 57    
Maximum Humidity 72    
Minimum Humidity 35    
Precipitation  
Precipitation 0.00 in - - ()
Sea Level Pressure  
Sea Level Pressure 29.87 in    
Wind  
Wind Speed 7 mph ()    
Max Wind Speed 16 mph    
Max Gust Speed -    
Visibility 6.4 miles    
Events      
Averages and records for this station are not official NWS values.
T = Trace of Precipitation, MM = Missing Value Source: Averaged Metar Reports

Daily Weather History Graph

Daily Weather History Graph

Search for Another Location

Airport or City:

Trip Planner

Search our weather history database for the weather conditions in past years. The results will help you decide how hot, cold, wet, or windy it might be!

Date:

Astronomy

Apr. 03, 2014 Rise Set
Actual Time 6:59 AM WEST 7:38 PM WEST
Civil Twilight 6:34 AM WEST 8:03 PM WEST
Nautical Twilight 6:03 AM WEST 8:34 PM WEST
Astronomical Twilight 5:33 AM WEST 9:05 PM WEST
Moon 9:24 AM WEST (4/3) 11:37 PM WEST (4/3)
Length of Visible Light 13h 29m
Length of Day
12h 38m
Waxing Crescent, 15% of the Moon is Illuminated
Apr 3
Waxing Crescent
Apr 7
First Quarter
Apr 15
Full
Apr 22
Last Quarter
Apr 29
New

Hourly Weather History & Observations

Time (WEST) Temp. Dew Point Humidity Pressure Visibility Wind Dir Wind Speed Gust Speed Precip Events Conditions
12:00 AM 59.0 °F 50.0 °F 72% 29.71 in 6.2 mi NNW 6.9 mph - N/A   Scattered Clouds
1:00 AM 56 °F 49 °F 69% 29.74 in 6 mi South 6.9 mph - -   Partly Cloudy
1:00 AM 57.2 °F 48.2 °F 72% 29.74 in 6.2 mi South 6.9 mph - N/A   Scattered Clouds
7:00 AM 54 °F 45 °F 63% 29.74 in 6 mi WNW 4.6 mph - -   Partly Cloudy
7:00 AM 53.6 °F 44.6 °F 72% 29.74 in 6.2 mi WNW 4.6 mph - N/A   Mostly Cloudy
8:00 AM 55.4 °F 44.6 °F 67% 29.77 in 6.2 mi Variable 2.3 mph - N/A   Mostly Cloudy
9:00 AM 55.4 °F 46.4 °F 72% 29.77 in 6.2 mi SSW 4.6 mph - N/A   Mostly Cloudy
10:00 AM 58 °F 46 °F 55% 29.81 in 6 mi West 9.2 mph - -   Partly Cloudy
10:00 AM 59.0 °F 46.4 °F 63% 29.80 in 6.2 mi West 9.2 mph - N/A   Mostly Cloudy
11:00 AM 60.8 °F 46.4 °F 59% 29.83 in 6.2 mi SW 11.5 mph - N/A   Scattered Clouds
12:00 PM 62.6 °F 44.6 °F 52% 29.83 in 6.2 mi West 13.8 mph - N/A   Scattered Clouds
1:00 PM 64 °F 47 °F 43% 29.86 in 6 mi West 11.5 mph - -   Mostly Cloudy
1:00 PM 64.4 °F 46.4 °F 52% 29.86 in 6.2 mi West 11.5 mph - N/A   Mostly Cloudy
2:00 PM 62.6 °F 48.2 °F 59% 29.86 in 6.2 mi WSW 11.5 mph - N/A   Scattered Clouds
3:00 PM 66.2 °F 46.4 °F 49% 29.86 in 6.2 mi WSW 11.5 mph - N/A   Scattered Clouds
4:00 PM 66 °F 45 °F 35% 29.88 in 6 mi West 16.1 mph - -   Partly Cloudy
4:00 PM 66.2 °F 44.6 °F 46% 29.86 in 6.2 mi West 16.1 mph - N/A   Scattered Clouds
5:00 PM 66.2 °F 46.4 °F 49% 29.89 in 6.2 mi WNW 9.2 mph - N/A   Scattered Clouds
6:00 PM 64.4 °F 46.4 °F 52% 29.92 in 6.2 mi NW 9.2 mph - N/A   Scattered Clouds
7:00 PM 63 °F 45 °F 40% 29.96 in 9 mi WNW 9.2 mph - -   Scattered Clouds
7:00 PM 62.6 °F 44.6 °F 52% 29.95 in 6.2 mi WNW 9.2 mph - N/A   Partly Cloudy
8:00 PM 60.8 °F 46.4 °F 59% 29.98 in 6.2 mi WNW 6.9 mph - N/A   Partly Cloudy
9:00 PM 59.0 °F 44.6 °F 59% 30.01 in 6.2 mi West 6.9 mph - N/A   Partly Cloudy
10:00 PM 58 °F 44 °F 50% 30.05 in 9 mi West 6.9 mph - -   Scattered Clouds
10:00 PM 59.0 °F 44.6 °F 59% 30.04 in 6.2 mi West 6.9 mph - N/A   Partly Cloudy
11:00 PM 55.4 °F 42.8 °F 63% 30.06 in 6.2 mi SW 6.9 mph - N/A   Partly Cloudy